Location: Maccacari
(45.1333°N, 11.1333°E)
Time: 08:39:28
(UTC+00:00)

ATLAS CENTAUR R/B - Pass Details

Date: 18 September 2020
Orbit: 479 x 667 km, 64.7° (Epoch: 12 October)

Event Time Altitude Azimuth Distance (km) Brightness Sun altitude
Rises 17:47:18 0° 259° (W) 2,679 6.5 -5.6°
Reaches altitude 10° 17:50:11 10° 281° (W) 1,754 5.8 -6.1°
Maximum altitude 17:52:44 16° 321° (NW) 1,369 4.1 -6.6°
Drops below altitude 10° 17:55:13 10° 3° (N) 1,706 3.9 -7.0°
Sets 17:57:59 0° 25° (NNE) 2,570 4.6 -7.5°
